Flag for U.S.A. Weather past 2 weeks in Aurora, Colorado, U.S.A.

Now
71 °F

Scattered clouds.


Feels Like: 76 °F
Forecast: 49 / 75 °F
Wind: 6 mph from Southwest

Location: Buckley Air Force Base

Current Time: Oct 21, 2014 at 1:01:33 PM

Latest Report: Oct 21, 2014 at 11:58 AM


Visibility: 10 mi

Pressure: 29.83 "Hg

Humidity: 27%

Dew point: 36 °F

Location of AuroraLocation

Historic Weather in Aurora — Graph

°F

Aurora temperature yesterday

Maximum temperature yesterday: 75 °F (at 2:58 PM)
Minimum temperature yesterday: 48 °F (at 6:58 AM)
Average temperature yesterday: 60 °F

Past Weeks' High & Low Weather Summary

 TemperatureHumidityPressure
High78 °F (Oct 15, 1:58 PM)100% (Oct 9, 5:58 PM)30.21 "Hg (Oct 9, 5:58 PM)
Low36 °F (Oct 13, 5:58 AM)14% (Oct 15, 1:58 PM)29.59 "Hg (Oct 12, 3:58 AM)
Average55 °F53%29.97 "Hg
* Reported Oct 6 11:58 AM — Oct 21 11:58 AM, Aurora, Weather by CustomWeather, © 2014

Note: Actual official high and low records may vary slightly from our data, if they occured in-between our weather recording intervals... More about our weather records

Advertising

Aurora weather history for previous 24 hours

 ConditionsComfort  
Time TempWeatherWind HumidityBarometerVisibility
11:58 AM
Oct 21
71 °FScattered clouds.6 mph27%29.83 "Hg10 mi
10:58 AM69 °FScattered clouds.13 mph33%29.85 "Hg10 mi
9:58 AM66 °FScattered clouds.13 mph35%29.87 "Hg10 mi
8:58 AM60 °FScattered clouds.14 mph43%29.89 "Hg10 mi
7:58 AM54 °FPassing clouds.10 mph53%29.90 "Hg10 mi
6:58 AM52 °FPassing clouds.10 mph55%29.88 "Hg10 mi
5:58 AM53 °FPassing clouds.12 mph53%29.89 "Hg10 mi
4:58 AM52 °FPassing clouds.14 mph58%29.87 "Hg10 mi
3:58 AM52 °FPassing clouds.14 mph59%29.86 "Hg10 mi
2:58 AM53 °FPassing clouds.15 mph59%29.86 "Hg10 mi
1:58 AM54 °FPassing clouds.16 mph56%29.87 "Hg10 mi
12:58 AM56 °FPassing clouds.18 mph52%29.88 "Hg10 mi
11:58 PM
Oct 20
56 °FPassing clouds.18 mph53%29.89 "Hg10 mi
10:58 PM58 °FPassing clouds.22 mph50%29.90 "Hg10 mi
9:58 PM59 °FPassing clouds.23 mph45%29.93 "Hg10 mi
8:58 PM60 °FPassing clouds.20 mph39%29.94 "Hg10 mi
7:58 PM61 °FPassing clouds.22 mph37%29.94 "Hg10 mi
6:58 PM64 °FPassing clouds.20 mph33%29.94 "Hg10 mi
5:58 PM66 °FPassing clouds.14 mph30%29.91 "Hg10 mi
4:58 PM71 °FPassing clouds.21 mph27%29.91 "Hg10 mi
3:58 PM74 °FPassing clouds.17 mph25%29.90 "Hg10 mi
2:58 PM75 °FPassing clouds.16 mph24%29.91 "Hg10 mi
1:58 PM74 °FPassing clouds.16 mph25%29.92 "Hg10 mi
Weather by CustomWeather, © 2014

See weather overviewHow to use our weather pages